Simultaneous Nadir Overpasses (SNOs) Predictions

Prediction of SNOs between GOES-16 and NPP Satellite Orbit:

Table of predicted SNOs for the next 14.0 days since TLE Epoch: 8/13/2022
Index Date Time (GOES-16) GOES-16 Lat,Lon NPP Lat,Lon Distance(km) Time Diff (sec)
1 08/13/2022 18:33:36 -0.02, -75.19 -0.50, -77.30 240.46 80
2 08/14/2022 18:17:33 -0.02, -75.20 0.54, -72.78 276.41 80
3 08/16/2022 06:39:21 0.02, -75.21 0.66, -78.05 323.19 80
4 08/17/2022 06:17:57 0.02, -75.22 -0.38, -73.52 194.02 80
5 08/18/2022 18:39:55 -0.02, -75.24 -0.81, -78.83 409.16 80
6 08/19/2022 18:23:50 -0.02, -75.25 0.18, -74.30 108.28 80
7 08/21/2022 06:45:40 -0.00, -75.27 0.96, -79.58 490.75 80
8 08/22/2022 06:24:16 -0.01, -75.28 -0.08, -75.05 26.85 80
9 08/24/2022 18:27:29 0.00, -75.32 -0.11, -75.83 57.56 80
10 08/25/2022 18:11:25 0.00, -75.34 0.94, -71.31 460.74 80
